Year,Month,Day,Hour,Minute,Value (Times are PST for temperature in C)
2015,05,20,00,00,13.40
2015,05,20,00,01,13.40
2015,05,20,00,02,13.40
2015,05,20,00,03,13.40
2015,05,20,00,04,13.40
2015,05,20,00,05,13.40
2015,05,20,00,06,13.40
2015,05,20,00,07,13.30
2015,05,20,00,08,13.30
2015,05,20,00,09,13.30
2015,05,20,00,10,13.30
2015,05,20,00,11,13.30
2015,05,20,00,12,13.30
2015,05,20,00,13,13.30
2015,05,20,00,14,13.30
2015,05,20,00,15,13.30
2015,05,20,00,16,13.30
2015,05,20,00,17,13.30
2015,05,20,00,18,13.30
2015,05,20,00,19,13.30
2015,05,20,00,20,13.30
2015,05,20,00,21,13.30
2015,05,20,00,22,13.30
2015,05,20,00,23,13.30
2015,05,20,00,24,13.20
2015,05,20,00,25,13.20
2015,05,20,00,26,13.20
2015,05,20,00,27,13.20
2015,05,20,00,28,13.20
2015,05,20,00,29,13.20
2015,05,20,00,30,13.20
2015,05,20,00,31,13.20
2015,05,20,00,32,13.20
2015,05,20,00,33,13.20
2015,05,20,00,34,13.20
2015,05,20,00,35,13.20
2015,05,20,00,36,13.20
2015,05,20,00,37,13.20
2015,05,20,00,38,13.20
2015,05,20,00,39,13.20
2015,05,20,00,40,13.20
2015,05,20,00,41,13.20
2015,05,20,00,42,13.20
2015,05,20,00,43,13.10
2015,05,20,00,44,13.10
2015,05,20,00,45,13.10
2015,05,20,00,46,13.10
2015,05,20,00,47,13.10
2015,05,20,00,48,13.10
2015,05,20,00,49,13.20
2015,05,20,00,50,13.20
2015,05,20,00,51,13.20
2015,05,20,00,52,13.20
2015,05,20,00,53,13.20
2015,05,20,00,54,13.20
2015,05,20,00,55,13.20
2015,05,20,00,56,13.20
2015,05,20,00,57,13.20
2015,05,20,00,58,13.30
2015,05,20,00,59,13.30
2015,05,20,01,00,13.30
2015,05,20,01,01,13.30
2015,05,20,01,02,13.30
2015,05,20,01,03,13.30
2015,05,20,01,04,13.30
2015,05,20,01,05,13.30
2015,05,20,01,06,13.30
2015,05,20,01,07,13.30
2015,05,20,01,08,13.30
2015,05,20,01,09,13.30
2015,05,20,01,10,13.30
2015,05,20,01,11,13.30
2015,05,20,01,12,13.40
2015,05,20,01,13,13.40
2015,05,20,01,14,13.40
2015,05,20,01,15,13.30
2015,05,20,01,16,13.30
2015,05,20,01,17,13.30
2015,05,20,01,18,13.30
2015,05,20,01,19,13.30
2015,05,20,01,20,13.30
2015,05,20,01,21,13.30
2015,05,20,01,22,13.20
2015,05,20,01,23,13.20
2015,05,20,01,24,13.20
2015,05,20,01,25,13.20
2015,05,20,01,26,13.10
2015,05,20,01,27,13.10
2015,05,20,01,28,13.10
2015,05,20,01,29,13.10
2015,05,20,01,30,13.00
2015,05,20,01,31,13.00
2015,05,20,01,32,13.00
2015,05,20,01,33,13.00
2015,05,20,01,34,12.90
2015,05,20,01,35,12.90
2015,05,20,01,36,12.90
2015,05,20,01,37,12.90
2015,05,20,01,38,12.90
2015,05,20,01,39,12.90
2015,05,20,01,40,12.90
2015,05,20,01,41,12.90
2015,05,20,01,42,12.90
2015,05,20,01,43,12.90
2015,05,20,01,44,12.90
2015,05,20,01,45,12.90
2015,05,20,01,46,12.90
2015,05,20,01,47,12.90
2015,05,20,01,48,12.80
2015,05,20,01,49,12.80
2015,05,20,01,50,12.80
2015,05,20,01,51,12.80
2015,05,20,01,52,12.80
2015,05,20,01,53,12.80
2015,05,20,01,54,12.80
2015,05,20,01,55,12.70
2015,05,20,01,56,12.70
2015,05,20,01,57,12.70
2015,05,20,01,58,12.70
2015,05,20,01,59,12.60
2015,05,20,02,00,12.60
2015,05,20,02,01,12.60
2015,05,20,02,02,12.60
2015,05,20,02,03,12.60
2015,05,20,02,04,12.60
2015,05,20,02,05,12.60
2015,05,20,02,06,12.50
2015,05,20,02,07,12.50
2015,05,20,02,08,12.50
2015,05,20,02,09,12.40
2015,05,20,02,10,12.40
2015,05,20,02,11,12.40
2015,05,20,02,12,12.40
2015,05,20,02,13,12.40
2015,05,20,02,14,12.40
2015,05,20,02,15,12.40
2015,05,20,02,16,12.30
2015,05,20,02,17,12.30
2015,05,20,02,18,12.30
2015,05,20,02,19,12.30
2015,05,20,02,20,12.30
2015,05,20,02,21,12.30
2015,05,20,02,22,12.30
2015,05,20,02,23,12.30
2015,05,20,02,24,12.20
2015,05,20,02,25,12.20
2015,05,20,02,26,12.20
2015,05,20,02,27,12.20
2015,05,20,02,28,12.20
2015,05,20,02,29,12.20
2015,05,20,02,30,12.10
2015,05,20,02,31,12.10
2015,05,20,02,32,12.10
2015,05,20,02,33,12.10
2015,05,20,02,34,12.10
2015,05,20,02,35,12.10
2015,05,20,02,36,12.00
2015,05,20,02,37,12.00
2015,05,20,02,38,12.00
2015,05,20,02,39,12.00
2015,05,20,02,40,11.90
2015,05,20,02,41,11.90
2015,05,20,02,42,11.90
2015,05,20,02,43,11.90
2015,05,20,02,44,11.90
2015,05,20,02,45,11.90
2015,05,20,02,46,11.90
2015,05,20,02,47,11.90
2015,05,20,02,48,11.90
2015,05,20,02,49,11.80
2015,05,20,02,50,11.80
2015,05,20,02,51,11.80
2015,05,20,02,52,11.80
2015,05,20,02,53,11.80
2015,05,20,02,54,11.80
2015,05,20,02,55,11.80
2015,05,20,02,56,11.80
2015,05,20,02,57,11.80
2015,05,20,02,58,11.80
2015,05,20,02,59,11.80
2015,05,20,03,00,11.80
2015,05,20,03,01,11.70
2015,05,20,03,02,11.70
2015,05,20,03,03,11.70
2015,05,20,03,04,11.70
2015,05,20,03,05,11.70
2015,05,20,03,06,11.70
2015,05,20,03,07,11.70
2015,05,20,03,08,11.70
2015,05,20,03,09,11.70
2015,05,20,03,10,11.80
2015,05,20,03,11,11.80
2015,05,20,03,12,11.80
2015,05,20,03,13,11.80
2015,05,20,03,14,11.80
2015,05,20,03,15,11.80
2015,05,20,03,16,11.80
2015,05,20,03,17,11.80
2015,05,20,03,18,11.80
2015,05,20,03,19,11.80
2015,05,20,03,20,11.80
2015,05,20,03,21,11.80
2015,05,20,03,22,11.80
2015,05,20,03,23,11.80
2015,05,20,03,24,11.80
2015,05,20,03,25,11.80
2015,05,20,03,26,11.80
2015,05,20,03,27,11.80
2015,05,20,03,28,11.80
2015,05,20,03,29,11.80
2015,05,20,03,30,11.80
2015,05,20,03,31,11.80
2015,05,20,03,32,11.80
2015,05,20,03,33,11.80
2015,05,20,03,34,11.80
2015,05,20,03,35,11.80
2015,05,20,03,36,11.80
2015,05,20,03,37,11.80
2015,05,20,03,38,11.80
2015,05,20,03,39,11.70
2015,05,20,03,40,11.70
2015,05,20,03,41,11.70
2015,05,20,03,42,11.70
2015,05,20,03,43,11.70
2015,05,20,03,44,11.70
2015,05,20,03,45,11.70
2015,05,20,03,46,11.70
2015,05,20,03,47,11.70
2015,05,20,03,48,11.70
2015,05,20,03,49,11.70
2015,05,20,03,50,11.70
2015,05,20,03,51,11.60
2015,05,20,03,52,11.60
2015,05,20,03,53,11.60
2015,05,20,03,54,11.60
2015,05,20,03,55,11.60
2015,05,20,03,56,11.60
2015,05,20,03,57,11.60
2015,05,20,03,58,11.60
2015,05,20,03,59,11.60
2015,05,20,04,00,11.60
2015,05,20,04,01,11.60
2015,05,20,04,02,11.60
2015,05,20,04,03,11.60
2015,05,20,04,04,11.60
2015,05,20,04,05,11.50
2015,05,20,04,06,11.50
2015,05,20,04,07,11.50
2015,05,20,04,08,11.50
2015,05,20,04,09,11.50
2015,05,20,04,10,11.50
2015,05,20,04,11,11.50
2015,05,20,04,12,11.40
2015,05,20,04,13,11.40
2015,05,20,04,14,11.40
2015,05,20,04,15,11.40
2015,05,20,04,16,11.40
2015,05,20,04,17,11.40
2015,05,20,04,18,11.40
2015,05,20,04,19,11.40
2015,05,20,04,20,11.40
2015,05,20,04,21,11.40
2015,05,20,04,22,11.40
2015,05,20,04,23,11.30
2015,05,20,04,24,11.30
2015,05,20,04,25,11.30
2015,05,20,04,26,11.30
2015,05,20,04,27,11.30
2015,05,20,04,28,11.30
2015,05,20,04,29,11.30
2015,05,20,04,30,11.30
2015,05,20,04,31,11.30
2015,05,20,04,32,11.30
2015,05,20,04,33,11.30
2015,05,20,04,34,11.30
2015,05,20,04,35,11.30
2015,05,20,04,36,11.30
2015,05,20,04,37,11.30
2015,05,20,04,38,11.30
2015,05,20,04,39,11.30
2015,05,20,04,40,11.30
2015,05,20,04,41,11.30
2015,05,20,04,42,11.20
2015,05,20,04,43,11.20
2015,05,20,04,44,11.20
2015,05,20,04,45,11.20
2015,05,20,04,46,11.20
2015,05,20,04,47,11.20
2015,05,20,04,48,11.20
2015,05,20,04,49,11.20
2015,05,20,04,50,11.20
2015,05,20,04,51,11.20
2015,05,20,04,52,11.20
2015,05,20,04,53,11.20
2015,05,20,04,54,11.20
2015,05,20,04,55,11.20
2015,05,20,04,56,11.10
2015,05,20,04,57,11.10
2015,05,20,04,58,11.10
2015,05,20,04,59,11.10
2015,05,20,05,00,11.10
2015,05,20,05,01,11.00
2015,05,20,05,02,11.00
2015,05,20,05,03,11.00
2015,05,20,05,04,11.00
2015,05,20,05,05,10.90
2015,05,20,05,06,10.90
2015,05,20,05,07,10.90
2015,05,20,05,08,10.90
2015,05,20,05,09,10.90
2015,05,20,05,10,10.90
2015,05,20,05,11,10.90
2015,05,20,05,12,10.90
2015,05,20,05,13,10.90
2015,05,20,05,14,10.90
2015,05,20,05,15,10.90
2015,05,20,05,16,10.90
2015,05,20,05,17,10.90
2015,05,20,05,18,10.90
2015,05,20,05,19,10.90
2015,05,20,05,20,10.80
2015,05,20,05,21,10.80
2015,05,20,05,22,10.90
2015,05,20,05,23,10.80
2015,05,20,05,24,10.80
2015,05,20,05,25,10.80
2015,05,20,05,26,10.80
2015,05,20,05,27,10.80
2015,05,20,05,28,10.80
2015,05,20,05,29,10.80
2015,05,20,05,30,10.80
2015,05,20,05,31,10.80
2015,05,20,05,32,10.80
2015,05,20,05,33,10.80
2015,05,20,05,34,10.80
2015,05,20,05,35,10.90
2015,05,20,05,36,10.80
2015,05,20,05,37,10.80
2015,05,20,05,38,10.80
2015,05,20,05,39,10.90
2015,05,20,05,40,10.80
2015,05,20,05,41,10.80
2015,05,20,05,42,10.80
2015,05,20,05,43,10.80
2015,05,20,05,44,10.80
2015,05,20,05,45,10.80
2015,05,20,05,46,10.80
2015,05,20,05,47,10.80
2015,05,20,05,48,10.80
2015,05,20,05,49,10.80
2015,05,20,05,50,10.80
2015,05,20,05,51,10.80
2015,05,20,05,52,10.80
2015,05,20,05,53,10.80
2015,05,20,05,54,10.80
2015,05,20,05,55,10.80
2015,05,20,05,56,10.80
2015,05,20,05,57,10.80
2015,05,20,05,58,10.80
2015,05,20,05,59,10.80
2015,05,20,06,00,10.80
2015,05,20,06,01,10.80
2015,05,20,06,02,10.80
2015,05,20,06,03,10.80
2015,05,20,06,04,10.80
2015,05,20,06,05,10.80
2015,05,20,06,06,10.80
2015,05,20,06,07,10.80
2015,05,20,06,08,10.80
2015,05,20,06,09,10.80
2015,05,20,06,10,10.80
2015,05,20,06,11,10.80
2015,05,20,06,12,10.80
2015,05,20,06,13,10.80
2015,05,20,06,14,10.80
2015,05,20,06,15,10.80
2015,05,20,06,16,10.80
2015,05,20,06,17,10.80
2015,05,20,06,18,10.80
2015,05,20,06,19,10.80
2015,05,20,06,20,10.80
2015,05,20,06,21,10.80
2015,05,20,06,22,10.80
2015,05,20,06,23,10.80
2015,05,20,06,24,10.80
2015,05,20,06,25,10.80
2015,05,20,06,26,10.80
2015,05,20,06,27,10.90
2015,05,20,06,28,10.90
2015,05,20,06,29,10.90
2015,05,20,06,30,10.90
2015,05,20,06,31,10.90
2015,05,20,06,32,10.90
2015,05,20,06,33,10.90
2015,05,20,06,34,10.90
2015,05,20,06,35,10.90
2015,05,20,06,36,10.90
2015,05,20,06,37,10.90
2015,05,20,06,38,10.90
2015,05,20,06,39,10.90
2015,05,20,06,40,10.90
2015,05,20,06,41,10.90
2015,05,20,06,42,10.90
2015,05,20,06,43,10.90
2015,05,20,06,44,10.90
2015,05,20,06,45,10.90
2015,05,20,06,46,10.90
2015,05,20,06,47,10.90
2015,05,20,06,48,10.90
2015,05,20,06,49,10.90
2015,05,20,06,50,10.90
2015,05,20,06,51,11.00
2015,05,20,06,52,11.00
2015,05,20,06,53,11.00
2015,05,20,06,54,11.00
2015,05,20,06,55,11.00
2015,05,20,06,56,11.00
2015,05,20,06,57,11.00
2015,05,20,06,58,11.10
2015,05,20,06,59,11.10
2015,05,20,07,00,11.10
2015,05,20,07,01,11.10
2015,05,20,07,02,11.10
2015,05,20,07,03,11.20
2015,05,20,07,04,11.20
2015,05,20,07,05,11.20
2015,05,20,07,06,11.20
2015,05,20,07,07,11.30
2015,05,20,07,08,11.30
2015,05,20,07,09,11.40
2015,05,20,07,10,11.40
2015,05,20,07,11,11.40
2015,05,20,07,12,11.50
2015,05,20,07,13,11.50
2015,05,20,07,14,11.60
2015,05,20,07,15,11.60
2015,05,20,07,16,11.70
2015,05,20,07,17,11.70
2015,05,20,07,18,11.80
2015,05,20,07,19,11.80
2015,05,20,07,20,11.80
2015,05,20,07,21,11.80
2015,05,20,07,22,11.90
2015,05,20,07,23,11.90
2015,05,20,07,24,11.90
2015,05,20,07,25,11.90
2015,05,20,07,26,12.00
2015,05,20,07,27,12.00
2015,05,20,07,28,12.00
2015,05,20,07,29,12.00
2015,05,20,07,30,12.10
2015,05,20,07,31,12.10
2015,05,20,07,32,12.20
2015,05,20,07,33,12.20
2015,05,20,07,34,12.20
2015,05,20,07,35,12.30
2015,05,20,07,36,12.30
2015,05,20,07,37,12.30
2015,05,20,07,38,12.30
2015,05,20,07,39,12.40
2015,05,20,07,40,12.40
2015,05,20,07,41,12.40
2015,05,20,07,42,12.50
2015,05,20,07,43,12.50
2015,05,20,07,44,12.50
2015,05,20,07,45,12.60
2015,05,20,07,46,12.60
2015,05,20,07,47,12.60
2015,05,20,07,48,12.60
2015,05,20,07,49,12.60
2015,05,20,07,50,12.60
2015,05,20,07,51,12.60
2015,05,20,07,52,12.60
2015,05,20,07,53,12.60
2015,05,20,07,54,12.60
2015,05,20,07,55,12.70
2015,05,20,07,56,12.70
2015,05,20,07,57,12.70
2015,05,20,07,58,12.80
2015,05,20,07,59,12.80
2015,05,20,08,00,12.90
2015,05,20,08,01,12.90
2015,05,20,08,02,13.00
2015,05,20,08,03,13.00
2015,05,20,08,04,13.00
2015,05,20,08,05,13.10
2015,05,20,08,06,13.10
2015,05,20,08,07,13.10
2015,05,20,08,08,13.00
2015,05,20,08,09,13.00
2015,05,20,08,10,13.00
2015,05,20,08,11,13.00
2015,05,20,08,12,13.00
2015,05,20,08,13,13.00
2015,05,20,08,14,13.00
2015,05,20,08,15,13.00
2015,05,20,08,16,13.00
2015,05,20,08,17,13.10
2015,05,20,08,18,13.10
2015,05,20,08,19,13.10
2015,05,20,08,20,13.10
2015,05,20,08,21,13.10
2015,05,20,08,22,13.20
2015,05,20,08,23,13.20
2015,05,20,08,24,13.20
2015,05,20,08,25,13.20
2015,05,20,08,26,13.20
2015,05,20,08,27,13.20
2015,05,20,08,28,13.20
2015,05,20,08,29,13.20
2015,05,20,08,30,13.20
2015,05,20,08,31,13.20
2015,05,20,08,32,13.20
2015,05,20,08,33,13.30
2015,05,20,08,34,13.30
2015,05,20,08,35,13.30
2015,05,20,08,36,13.30
2015,05,20,08,37,13.30
2015,05,20,08,38,13.30
2015,05,20,08,39,13.30
2015,05,20,08,40,13.30
2015,05,20,08,41,13.30
2015,05,20,08,42,13.30
2015,05,20,08,43,13.30
2015,05,20,08,44,13.30
2015,05,20,08,45,13.30
2015,05,20,08,46,13.30
2015,05,20,08,47,13.40
2015,05,20,08,48,13.40
2015,05,20,08,49,13.40
2015,05,20,08,50,13.50
2015,05,20,08,51,13.50
2015,05,20,08,52,13.60
2015,05,20,08,53,13.70
2015,05,20,08,54,13.70
2015,05,20,08,55,13.80
2015,05,20,08,56,13.80
2015,05,20,08,57,13.80
2015,05,20,08,58,13.90
2015,05,20,08,59,13.90
2015,05,20,09,00,13.90
2015,05,20,09,01,13.90
2015,05,20,09,02,14.00
2015,05,20,09,03,14.00
2015,05,20,09,04,14.10
2015,05,20,09,05,14.20
2015,05,20,09,06,14.30
2015,05,20,09,07,14.40
2015,05,20,09,08,14.50
2015,05,20,09,09,14.60
2015,05,20,09,10,14.70
2015,05,20,09,11,14.80
2015,05,20,09,12,14.90
2015,05,20,09,13,15.00
2015,05,20,09,14,15.00
2015,05,20,09,15,15.00
2015,05,20,09,16,15.10
2015,05,20,09,17,15.20
2015,05,20,09,18,15.30
2015,05,20,09,19,15.40
2015,05,20,09,20,15.50
2015,05,20,09,21,15.40
2015,05,20,09,22,15.40
2015,05,20,09,23,15.50
2015,05,20,09,24,15.50
2015,05,20,09,25,15.60
2015,05,20,09,26,15.60
2015,05,20,09,27,15.70
2015,05,20,09,28,15.70
2015,05,20,09,29,15.80
2015,05,20,09,30,15.90
2015,05,20,09,31,15.90
2015,05,20,09,32,16.00
2015,05,20,09,33,16.10
2015,05,20,09,34,16.20
2015,05,20,09,35,16.20
2015,05,20,09,36,16.20
2015,05,20,09,37,16.30
2015,05,20,09,38,16.30
2015,05,20,09,39,16.40
2015,05,20,09,40,16.40
2015,05,20,09,41,16.50
2015,05,20,09,42,16.60
2015,05,20,09,43,16.70
2015,05,20,09,44,16.70
2015,05,20,09,45,16.80
2015,05,20,09,46,16.80
2015,05,20,09,47,16.80
2015,05,20,09,48,16.80
2015,05,20,09,49,16.80
2015,05,20,09,50,16.80
2015,05,20,09,51,16.90
2015,05,20,09,52,17.00
2015,05,20,09,53,17.00
2015,05,20,09,54,17.10
2015,05,20,09,55,17.20
2015,05,20,09,56,17.30
2015,05,20,09,57,17.20
2015,05,20,09,58,17.00
2015,05,20,09,59,16.80
2015,05,20,10,00,16.80
2015,05,20,10,01,16.70
2015,05,20,10,02,16.80
2015,05,20,10,03,16.80
2015,05,20,10,04,16.80
2015,05,20,10,05,16.90
2015,05,20,10,06,16.90
2015,05,20,10,07,17.00
2015,05,20,10,08,17.10
2015,05,20,10,09,17.10
2015,05,20,10,10,17.10
2015,05,20,10,11,17.10
2015,05,20,10,12,17.00
2015,05,20,10,13,16.70
2015,05,20,10,14,16.60
2015,05,20,10,15,16.50
2015,05,20,10,16,16.50
2015,05,20,10,17,16.40
2015,05,20,10,18,16.40
2015,05,20,10,19,16.30
2015,05,20,10,20,16.30
2015,05,20,10,21,16.30
2015,05,20,10,22,16.30
2015,05,20,10,23,16.30
2015,05,20,10,24,16.30
2015,05,20,10,25,16.20
2015,05,20,10,26,16.10
2015,05,20,10,27,16.10
2015,05,20,10,28,16.00
2015,05,20,10,29,16.00
2015,05,20,10,30,16.00
2015,05,20,10,31,15.90
2015,05,20,10,32,15.90
2015,05,20,10,33,15.80
2015,05,20,10,34,15.80
2015,05,20,10,35,15.80
2015,05,20,10,36,15.90
2015,05,20,10,37,15.90
2015,05,20,10,38,16.00
2015,05,20,10,39,16.10
2015,05,20,10,40,16.20
2015,05,20,10,41,16.30
2015,05,20,10,42,16.40
2015,05,20,10,43,16.50
2015,05,20,10,44,16.50
2015,05,20,10,45,16.60
2015,05,20,10,46,16.70
2015,05,20,10,47,16.80
2015,05,20,10,48,16.90
2015,05,20,10,49,17.00
2015,05,20,10,50,17.20
2015,05,20,10,51,17.30
2015,05,20,10,52,17.30
2015,05,20,10,53,17.40
2015,05,20,10,54,17.50
2015,05,20,10,55,17.50
2015,05,20,10,56,17.40
2015,05,20,10,57,17.30
2015,05,20,10,58,17.30
2015,05,20,10,59,17.20
2015,05,20,11,00,17.30
2015,05,20,11,01,17.30
2015,05,20,11,02,17.40
2015,05,20,11,03,17.40
2015,05,20,11,04,17.50
2015,05,20,11,05,17.50
2015,05,20,11,06,17.60
2015,05,20,11,07,17.70
2015,05,20,11,08,17.70
2015,05,20,11,09,17.80
2015,05,20,11,10,17.80
2015,05,20,11,11,17.80
2015,05,20,11,12,17.90
2015,05,20,11,13,18.00
2015,05,20,11,14,18.00
2015,05,20,11,15,18.10
2015,05,20,11,16,18.10
2015,05,20,11,17,18.10
2015,05,20,11,18,18.10
2015,05,20,11,19,18.10
2015,05,20,11,20,18.10
2015,05,20,11,21,18.10
2015,05,20,11,22,18.10
2015,05,20,11,23,18.10
2015,05,20,11,24,18.10
2015,05,20,11,25,18.00
2015,05,20,11,26,18.00
2015,05,20,11,27,18.00
2015,05,20,11,28,17.90
2015,05,20,11,29,17.90
2015,05,20,11,30,17.90
2015,05,20,11,31,17.90
2015,05,20,11,32,17.90
2015,05,20,11,33,17.90
2015,05,20,11,34,17.90
2015,05,20,11,35,17.80
2015,05,20,11,36,17.70
2015,05,20,11,37,17.70
2015,05,20,11,38,17.70
2015,05,20,11,39,17.70
2015,05,20,11,40,17.70
2015,05,20,11,41,17.70
2015,05,20,11,42,17.70
2015,05,20,11,43,17.70
2015,05,20,11,44,17.60
2015,05,20,11,45,17.70
2015,05,20,11,46,17.70
2015,05,20,11,47,17.70
2015,05,20,11,48,17.60
2015,05,20,11,49,17.60
2015,05,20,11,50,17.60
2015,05,20,11,51,17.50
2015,05,20,11,52,17.30
2015,05,20,11,53,17.20
2015,05,20,11,54,17.10
2015,05,20,11,55,17.10
2015,05,20,11,56,17.10
2015,05,20,11,57,17.10
2015,05,20,11,58,17.10
2015,05,20,11,59,17.10
2015,05,20,12,00,17.10
2015,05,20,12,01,17.10
2015,05,20,12,02,17.10
2015,05,20,12,03,17.00
2015,05,20,12,04,17.00
2015,05,20,12,05,17.00
2015,05,20,12,06,17.00
2015,05,20,12,07,17.00
2015,05,20,12,08,17.10
2015,05,20,12,09,17.10
2015,05,20,12,10,17.10
2015,05,20,12,11,17.10
2015,05,20,12,12,17.10
2015,05,20,12,13,17.10
2015,05,20,12,14,17.10
2015,05,20,12,15,17.20
2015,05,20,12,16,17.10
2015,05,20,12,17,17.10
2015,05,20,12,18,17.10
2015,05,20,12,19,17.10
2015,05,20,12,20,17.10
2015,05,20,12,21,17.00
2015,05,20,12,22,17.00
2015,05,20,12,23,17.00
2015,05,20,12,24,16.90
2015,05,20,12,25,16.90
2015,05,20,12,26,16.90
2015,05,20,12,27,16.80
2015,05,20,12,28,16.80
2015,05,20,12,29,16.80
2015,05,20,12,30,16.70
2015,05,20,12,31,16.80
2015,05,20,12,32,16.80
2015,05,20,12,33,16.90
2015,05,20,12,34,16.90
2015,05,20,12,35,17.00
2015,05,20,12,36,17.00
2015,05,20,12,37,17.00
2015,05,20,12,38,17.00
2015,05,20,12,39,17.00
2015,05,20,12,40,16.90
2015,05,20,12,41,16.80
2015,05,20,12,42,16.70
2015,05,20,12,43,16.70
2015,05,20,12,44,16.70
2015,05,20,12,45,16.80
2015,05,20,12,46,16.90
2015,05,20,12,47,16.90
2015,05,20,12,48,17.00
2015,05,20,12,49,17.10
2015,05,20,12,50,17.20
2015,05,20,12,51,17.30
2015,05,20,12,52,17.30
2015,05,20,12,53,17.30
2015,05,20,12,54,17.30
2015,05,20,12,55,17.20
2015,05,20,12,56,17.10
2015,05,20,12,57,17.10
2015,05,20,12,58,17.00
2015,05,20,12,59,17.10
2015,05,20,13,00,17.10
2015,05,20,13,01,17.10
2015,05,20,13,02,17.10
2015,05,20,13,03,17.20
2015,05,20,13,04,17.20
2015,05,20,13,05,17.20
2015,05,20,13,06,17.10
2015,05,20,13,07,17.00
2015,05,20,13,08,17.00
2015,05,20,13,09,17.10
2015,05,20,13,10,17.20
2015,05,20,13,11,17.30
2015,05,20,13,12,17.30
2015,05,20,13,13,17.40
2015,05,20,13,14,17.40
2015,05,20,13,15,17.30
2015,05,20,13,16,17.30
2015,05,20,13,17,17.30
2015,05,20,13,18,17.20
2015,05,20,13,19,17.30
2015,05,20,13,20,17.30
2015,05,20,13,21,17.40
2015,05,20,13,22,17.40
2015,05,20,13,23,17.50
2015,05,20,13,24,17.60
2015,05,20,13,25,17.60
2015,05,20,13,26,17.60
2015,05,20,13,27,17.60
2015,05,20,13,28,17.60
2015,05,20,13,29,17.70
2015,05,20,13,30,17.70
2015,05,20,13,31,17.70
2015,05,20,13,32,17.70
2015,05,20,13,33,17.80
2015,05,20,13,34,17.80
2015,05,20,13,35,17.90
2015,05,20,13,36,18.00
2015,05,20,13,37,18.10
2015,05,20,13,38,18.10
2015,05,20,13,39,18.10
2015,05,20,13,40,18.20
2015,05,20,13,41,18.20
2015,05,20,13,42,18.30
2015,05,20,13,43,18.30
2015,05,20,13,44,18.40
2015,05,20,13,45,18.50
2015,05,20,13,46,18.60
2015,05,20,13,47,18.70
2015,05,20,13,48,18.80
2015,05,20,13,49,18.90
2015,05,20,13,50,19.00
2015,05,20,13,51,19.10
2015,05,20,13,52,19.10
2015,05,20,13,53,19.20
2015,05,20,13,54,19.20
2015,05,20,13,55,19.20
2015,05,20,13,56,19.30
2015,05,20,13,57,19.30
2015,05,20,13,58,19.20
2015,05,20,13,59,19.10
2015,05,20,14,00,19.00
2015,05,20,14,01,18.90
2015,05,20,14,02,19.00
2015,05,20,14,03,19.00
2015,05,20,14,04,19.00
2015,05,20,14,05,19.00
2015,05,20,14,06,18.90
2015,05,20,14,07,18.90
2015,05,20,14,08,18.90
2015,05,20,14,09,18.90
2015,05,20,14,10,18.90
2015,05,20,14,11,18.80
2015,05,20,14,12,18.90
2015,05,20,14,13,18.90
2015,05,20,14,14,18.90
2015,05,20,14,15,19.00
2015,05,20,14,16,19.10
2015,05,20,14,17,19.20
2015,05,20,14,18,19.30
2015,05,20,14,19,19.40
2015,05,20,14,20,19.50
2015,05,20,14,21,19.50
2015,05,20,14,22,19.50
2015,05,20,14,23,19.50
2015,05,20,14,24,19.40
2015,05,20,14,25,19.40
2015,05,20,14,26,19.40
2015,05,20,14,27,19.40
2015,05,20,14,28,19.50
2015,05,20,14,29,19.60
2015,05,20,14,30,19.80
2015,05,20,14,31,19.90
2015,05,20,14,32,20.00
2015,05,20,14,33,20.10
2015,05,20,14,34,20.20
2015,05,20,14,35,20.30
2015,05,20,14,36,20.40
2015,05,20,14,37,20.40
2015,05,20,14,38,20.50
2015,05,20,14,39,20.60
2015,05,20,14,40,20.60
2015,05,20,14,41,20.60
2015,05,20,14,42,20.70
2015,05,20,14,43,20.70
2015,05,20,14,44,20.70
2015,05,20,14,45,20.80
2015,05,20,14,46,20.80
2015,05,20,14,47,20.80
2015,05,20,14,48,20.80
2015,05,20,14,49,20.80
2015,05,20,14,50,20.80
2015,05,20,14,51,20.80
2015,05,20,14,52,20.70
2015,05,20,14,53,20.70
2015,05,20,14,54,20.70
2015,05,20,14,55,20.70
2015,05,20,14,56,20.70
2015,05,20,14,57,20.70
2015,05,20,14,58,20.60
2015,05,20,14,59,20.50
2015,05,20,15,00,20.40
2015,05,20,15,01,20.30
2015,05,20,15,02,20.20
2015,05,20,15,03,20.30
2015,05,20,15,04,20.30
2015,05,20,15,05,20.40
2015,05,20,15,06,20.40
2015,05,20,15,07,20.30
2015,05,20,15,08,20.20
2015,05,20,15,09,20.10
2015,05,20,15,10,20.10
2015,05,20,15,11,20.10
2015,05,20,15,12,20.10
2015,05,20,15,13,20.10
2015,05,20,15,14,20.10
2015,05,20,15,15,20.10
2015,05,20,15,16,20.20
2015,05,20,15,17,20.20
2015,05,20,15,18,20.20
2015,05,20,15,19,20.20
2015,05,20,15,20,20.20
2015,05,20,15,21,20.20
2015,05,20,15,22,20.20
2015,05,20,15,23,20.30
2015,05,20,15,24,20.50
2015,05,20,15,25,20.60
2015,05,20,15,26,20.70
2015,05,20,15,27,20.80
2015,05,20,15,28,20.90
2015,05,20,15,29,20.90
2015,05,20,15,30,21.00
2015,05,20,15,31,21.10
2015,05,20,15,32,21.10
2015,05,20,15,33,21.20
2015,05,20,15,34,21.20
2015,05,20,15,35,21.30
2015,05,20,15,36,21.30
2015,05,20,15,37,21.40
2015,05,20,15,38,21.60
2015,05,20,15,39,21.70
2015,05,20,15,40,21.80
2015,05,20,15,41,21.80
2015,05,20,15,42,21.80
2015,05,20,15,43,21.80
2015,05,20,15,44,21.70
2015,05,20,15,45,21.70
2015,05,20,15,46,21.70
2015,05,20,15,47,21.70
2015,05,20,15,48,21.70
2015,05,20,15,49,21.70
2015,05,20,15,50,21.80
2015,05,20,15,51,21.80
2015,05,20,15,52,21.90
2015,05,20,15,53,22.00
2015,05,20,15,54,22.10
2015,05,20,15,55,22.10
2015,05,20,15,56,22.20
2015,05,20,15,57,22.30
2015,05,20,15,58,22.30
2015,05,20,15,59,22.30
2015,05,20,16,00,22.30
2015,05,20,16,01,22.30
2015,05,20,16,02,22.20
2015,05,20,16,03,22.20
2015,05,20,16,04,22.20
2015,05,20,16,05,22.20
2015,05,20,16,06,22.20
2015,05,20,16,07,22.20
2015,05,20,16,08,22.20
2015,05,20,16,09,22.20
2015,05,20,16,10,22.20
2015,05,20,16,11,22.20
2015,05,20,16,12,22.10
2015,05,20,16,13,22.00
2015,05,20,16,14,21.90
2015,05,20,16,15,21.70
2015,05,20,16,16,21.60
2015,05,20,16,17,21.50
2015,05,20,16,18,21.40
2015,05,20,16,19,21.40
2015,05,20,16,20,21.30
2015,05,20,16,21,21.30
2015,05,20,16,22,21.30
2015,05,20,16,23,21.20
2015,05,20,16,24,21.20
2015,05,20,16,25,21.20
2015,05,20,16,26,21.20
2015,05,20,16,27,21.20
2015,05,20,16,28,21.20
2015,05,20,16,29,21.20
2015,05,20,16,30,21.20
2015,05,20,16,31,21.20
2015,05,20,16,32,21.30
2015,05,20,16,33,21.30
2015,05,20,16,34,21.40
2015,05,20,16,35,21.40
2015,05,20,16,36,21.40
2015,05,20,16,37,21.50
2015,05,20,16,38,21.50
2015,05,20,16,39,21.60
2015,05,20,16,40,21.60
2015,05,20,16,41,21.70
2015,05,20,16,42,21.80
2015,05,20,16,43,22.00
2015,05,20,16,44,22.10
2015,05,20,16,45,22.20
2015,05,20,16,46,22.40
2015,05,20,16,47,22.60
2015,05,20,16,48,22.80
2015,05,20,16,49,22.90
2015,05,20,16,50,23.10
2015,05,20,16,51,23.20
2015,05,20,16,52,23.20
2015,05,20,16,53,23.30
2015,05,20,16,54,23.40
2015,05,20,16,55,23.40
2015,05,20,16,56,23.50
2015,05,20,16,57,23.70
2015,05,20,16,58,23.80
2015,05,20,16,59,23.90
2015,05,20,17,00,24.00
2015,05,20,17,01,24.10
2015,05,20,17,02,24.30
2015,05,20,17,03,24.40
2015,05,20,17,04,24.60
2015,05,20,17,05,24.70
2015,05,20,17,06,24.80
2015,05,20,17,07,24.80
2015,05,20,17,08,24.90
2015,05,20,17,09,25.00
2015,05,20,17,10,25.10
2015,05,20,17,11,25.20
2015,05,20,17,12,25.20
2015,05,20,17,13,25.30
2015,05,20,17,14,25.40
2015,05,20,17,15,25.40
2015,05,20,17,16,25.40
2015,05,20,17,17,25.40
2015,05,20,17,18,25.30
2015,05,20,17,19,25.30